SKYSAT-C10

Last updated on Thu Nov 06 2025 00:02:31 GMT+0000 (Coordinated Universal Time)

1 42988U 17068B 25309.16864135 .00011903 00000+0 38349-3 0 9999 2 42988 97.4238 79.9366 0003010 120.8832 239.2706 15.32340245448042
UTC large
Height (km)
Speed (km/s)
/
Latitude / Longitude
Inclination (degrees)
Orbital Period (minutes)
Azimuth
Elevation
Range (km)
Doppler Factor

Next 0 passes for location: London (51.5072 / 0.1276)

Sorry there are no passes over London.